Regional Weather Roundup
Issued by NWS Upton, NY

Current Version | Previous Version | Text Only | Print | Product List | Glossary On
Versions: 1 2 3 4 5 6 7 8 9 10 11 12 13 14 15 16 17 18 19 20 21 22 23 24 25 26 27 28 29 30 31 32 33 34 35 36 37 38 39 40 41 42 43 44 45 46 47 48 49 50
000
ASUS41 KOKX 210708
RWROKX

REGIONAL WEATHER ROUNDUP
NATIONAL WEATHER SERVICE NEW YORK NY
300 AM EDT MON AUG 21 2017

NOTE: "FAIR" INDICATES FEW OR NO CLOUDS BELOW 12,000 FEET WITH NO
SIGNIFICANT WEATHER AND/OR OBSTRUCTIONS TO VISIBILITY.

NYZ071-072-176-178-NJZ106-104-210800-
NEW YORK CITY METRO AREA

CITY           SKY/WX    TMP DP  RH WIND       PRES   REMARKS
Central Park   CLEAR     74  60  61 W3        30.19F
Bronx Bot Gard   N/A     68  59  73 E1        30.15F
LaGuardia APRT CLEAR     77  63  61 CALM      30.15F
Kennedy INTL   CLEAR     71  66  84 SW6       30.17F
Breezy Point     N/A     72 N/A N/A W3          N/A
Newark/Liberty PTCLDY    68  61  78 SW5       30.16F
Teterboro      CLEAR     70  62  76 CALM      30.15F
$$

NYZ177-179-078>081-210800-
LONG ISLAND NEW YORK

CITY           SKY/WX    TMP DP  RH WIND       PRES   REMARKS
Jones Beach      N/A     72 N/A N/A SW1         N/A
Matinecock PT    N/A     72 N/A N/A SW1         N/A
Farmingdale    CLEAR     70  60  70 CALM      30.17S
MacArthur/ISP  CLEAR     66  61  84 CALM      30.16S
Shirley        CLEAR     64  62  93 CALM      30.17R
Mt Sinai Harb    N/A    N/A N/A N/A CALM        N/A
Westhampton    CLEAR     57  53  86 CALM      30.18S
East Hampton   FAIR      57  56  94 CALM      30.16R
Montauk          N/A     69  64  84 CALM      30.16S
$$

NYZ052-065-067-210800-
HUDSON VALLEY

CITY           SKY/WX    TMP DP  RH WIND       PRES   REMARKS
White Plains   CLEAR     68  61  78 NW5       30.17S
Larchmont Harb   N/A     70 N/A N/A N3          N/A
Croton On Huds   N/A     66 N/A N/A NE2         N/A
Newburgh       CLEAR     64  63  94 CALM      30.19S
Montgomery     CLEAR     61  59  93 CALM      30.17S
Poughkeepsie   CLEAR     62  60  93 CALM      30.15F
Albany         PTCLDY    62  59  90 CALM      30.15S
$$

NJZ001-105-106-008-010-013-015-019>022-104-210800-
NEW JERSEY

CITY           SKY/WX    TMP DP  RH WIND       PRES   REMARKS
Newark/Liberty PTCLDY    68  61  78 SW5       30.16F
Teterboro      CLEAR     70  62  76 CALM      30.15F
Caldwell       PTCLDY    65  64  97 CALM      30.18S
Somerville     CLEAR     62  62 100 CALM      30.16S
Linden         FAIR      70  62  76 CALM      30.17S
Perth Amboy      N/A     70 N/A N/A W5          N/A
Sussex         CLEAR     61  61 100 CALM      30.18S
Andover          N/A     61  60  97 CALM      30.19S
Trenton        CLEAR     66  63  90 CALM      30.18S
Millville      CLEAR     65  64  97 CALM      30.18F
Atlantic City  CLEAR     64  61  90 CALM      30.18F
Wrightstown    CLEAR     64  61  91 CALM      30.16S
Toms River     CLEAR     60  57  89 CALM      30.19S
Belmar         CLEAR     67  61  81 CALM      30.19S
$$

PAZ047>061-062-071-210800-
EASTERN PENNSYLVANIA

CITY           SKY/WX    TMP DP  RH WIND       PRES   REMARKS
Philadelphia   PTCLDY    71  66  84 CALM      30.19S
Allentown      CLEAR     66  63  90 CALM      30.18S
Scranton       CLEAR     63  61  93 E3        30.20S
$$

CTZ002-004>006-009-010-012-RIZ004-006-007-MAZ004-011-015-210800-
SOUTHERN NEW ENGLAND
 IN CT

CITY           SKY/WX    TMP DP  RH WIND       PRES   REMARKS
Bradley INTL   CLEAR     61  59  93 W3        30.16R
Hartford       CLEAR     64  62  93 CALM      30.16R
Danbury        CLEAR     62  60  93 CALM      30.19S
Wtrbury/Oxford CLEAR     59  58  96 CALM      30.19R
Norwalk Harbor   N/A     70 N/A N/A W1          N/A
Bridgeport     CLEAR     70  62  76 CALM      30.16S
Meriden        CLEAR     59  58  96 CALM      30.17R
New Haven      CLEAR     63  60  90 CALM      30.16S
Chester        FAIR      70  59  68 W3        30.17R
Groton         CLEAR     64  60  87 CALM      30.15R
Wilimantic     CLEAR     60  59  96 CALM      30.16S

 IN RI

CITY           SKY/WX    TMP DP  RH WIND       PRES   REMARKS
Providence     CLEAR     65  61  87 W6        30.14S
Block Island   CLEAR     67  61  81 W6        30.16S
Westerly       CLEAR     61  58  90 CALM      30.15S
 IN MA

CITY           SKY/WX    TMP DP  RH WIND       PRES   REMARKS
Boston         CLEAR     71  59  65 W9        30.12S
Worcester      CLEAR     64  55  72 W10       30.16S
Westfield      CLEAR     58  58 100 CALM      30.16R
Provincetown   CLEAR     66  61  84 W6        30.12S
Nantucket      CLEAR     66  65  96 W6        30.13R
$$

ANZ330-335-338-340-345-350-353-355-210800-
COASTAL MARINE OBSERVATIONS


STATION/POSITION TIME  SKY/WX   TEMP    WIND        PRES    VSBY  WAVE
                                AIR SEA DIR/SP/G                  HT/PER
                 (UTC)          (F)     (DEG/KT/KT) (MB)    (MI)  (FT/S)
NY HARB ENTRANCE 0550            76 76  270/  8/ 10 1021.1          1/ 9
GREAT SOUTH BAY  0615            75 78  290/  8/  8   N/A
23 SSW MONTAUK P 0550            73 72              1021.5          2/ 8
15 E BARNEGAT LI 0630               77                N/A           2/ 8
HUDSON CANYON    0550            74 74  230/  8/  8 1021.1          2/ 9
KINGS POINT      0624            74 74   CALM  /  1 1021.3
EXECUTION ROCKS  NOT AVBL
WESTERN LI SOUND NOT AVBL
CENTRAL LI SOUND NOT AVBL
EASTERN LI SOUND NOT AVBL
ROBBINS REEF     0630                   260/  5/  6 1022.1
$$


>>>>>>>>>>>>>>>>>>>>>>>>>>>> KEY <<<<<<<<<<<<<<<<<<<<<<<<<<<
>                                                          <
>     SKY/WX - Sky Condition/Present Weather               <
>     TMP    - Temperature in Fahrenheit                   <
>     DP     - Dew Point in Fahrenheit                     <
>     RH     - Relative Humidity in Percent                <
>     WIND   - Direction (from) and Speed in MPH           <
>     PRES   - Mean Sea Level Pressure (inches of Hg)      <
>     WCI    - Wind Chill Index                            <
>     VSB    - VISIBILITY IN MILES                         <
>     HX     - HEAT INDEX                                  <
>     TC     - TEMPERATURE IN CELSIUS                      <
>     VRB    - VARIABLE WIND DIRECTION                     <
>                                                          <
>>>>>>>>>>>>>>>>>>>>>>>>>>>> KEY <<<<<<<<<<<<<<<<<<<<<<<<<<<



USA.gov is the U.S. government's official web portal to all federal, state and local government web resources and services.